Weather History for Bad Axe, MI

Change the Weather History Date:

Tuesday, November 6, 2012

  Actual Average (KP58) Record (KP58)
Temperature  
Mean Temperature 34 °F -  
Max Temperature 40 °F 47 °F 64 °F (2008)
Min Temperature 30 °F 36 °F 33 °F (2003)
Degree Days  
Heating Degree Days 30    
Moisture  
Dew Point 28 °F    
Average Humidity 74    
Maximum Humidity 88    
Minimum Humidity 57    
Precipitation  
Precipitation 0.00 in - - ()
Sea Level Pressure  
Sea Level Pressure 30.08 in    
Wind  
Wind Speed 3 mph (SSE)    
Max Wind Speed 9 mph    
Max Gust Speed -    
Visibility 10 miles    
Events      
Averages and records for this station are not official NWS values.
T = Trace of Precipitation, MM = Missing Value Source: NWS Daily Summary

Daily Weather History Graph

Daily Weather History Graph

Search for Another Location

Airport:

Trip Planner

Search our weather history database for the weather conditions in past years. The results will help you decide how hot, cold, wet, or windy it might be!

Date:

Astronomy

Nov. 06, 2012 Rise Set
Actual Time 7:15 AM EST 5:15 PM EST
Civil Twilight 6:44 AM EST 5:45 PM EST
Nautical Twilight 6:10 AM EST 6:20 PM EST
Astronomical Twilight 5:36 AM EST 6:53 PM EST
Moon 11:55 PM EST (11/6) 1:05 PM EST (11/6)
Length of Visible Light 11h 00m
Length of Day
10h 00m
Waning Gibbous, 53% of the Moon is Illuminated
Nov 6
Waning Gibbous
Nov 6
Last Quarter
Nov 13
New
Nov 20
First Quarter
Nov 28
Full

Hourly Weather History & Observations

Time (EST) Temp. Windchill Dew Point Humidity Pressure Visibility Wind Dir Wind Speed Gust Speed Precip Events Conditions
12:15 AM 32.0 °F - 26.6 °F 80% 30.17 in 10.0 mi Calm Calm - N/A   Overcast
12:35 AM 31.1 °F - 24.6 °F 77% 30.17 in 10.0 mi Calm Calm - N/A   Scattered Clouds
12:55 AM 30.2 °F - 24.3 °F 79% 30.16 in 10.0 mi Calm Calm - N/A   Mostly Cloudy
1:15 AM 30.6 °F - 25.9 °F 83% 30.16 in 10.0 mi Calm Calm - N/A   Overcast
1:35 AM 30.9 °F - 26.4 °F 83% 30.16 in 10.0 mi Calm Calm - N/A   Overcast
1:54 AM 31.8 °F - 27.0 °F 82% 30.15 in 10.0 mi Calm Calm - N/A   Overcast
2:15 AM 32.0 °F - 26.4 °F 80% 30.15 in 10.0 mi Calm Calm - N/A   Overcast
2:35 AM 32.0 °F - 26.8 °F 81% 30.15 in 10.0 mi Calm Calm - N/A   Overcast
2:54 AM 32.0 °F - 27.9 °F 85% 30.15 in 10.0 mi Calm Calm - N/A   Overcast
3:15 AM 32.0 °F - 27.5 °F 83% 30.14 in 10.0 mi Calm Calm - N/A   Overcast
3:35 AM 32.0 °F 27.5 °F 27.5 °F 83% 30.14 in 10.0 mi South 4.6 mph - N/A   Overcast
3:54 AM 32.5 °F 29.3 °F 27.1 °F 80% 30.12 in 10.0 mi SSE 3.5 mph - N/A   Overcast
4:15 AM 32.2 °F - 28.0 °F 85% 30.12 in 10.0 mi Calm Calm - N/A   Overcast
4:35 AM 32.2 °F - 28.0 °F 85% 30.12 in 10.0 mi Calm Calm - N/A   Overcast
4:54 AM 32.5 °F 29.3 °F 28.4 °F 85% 30.12 in 10.0 mi South 3.5 mph - N/A   Overcast
5:15 AM 32.5 °F 28.1 °F 29.3 °F 88% 30.11 in 10.0 mi South 4.6 mph - N/A   Overcast
5:35 AM 32.5 °F - 29.3 °F 88% 30.11 in 10.0 mi Calm Calm - N/A   Overcast
5:55 AM 32.5 °F - 29.1 °F 87% 30.10 in 10.0 mi Calm Calm - N/A   Overcast
6:15 AM 32.9 °F - 28.6 °F 84% 30.10 in 10.0 mi Calm Calm - N/A   Overcast
6:35 AM 32.9 °F - 28.4 °F 84% 30.10 in 10.0 mi Calm Calm - N/A   Overcast
6:55 AM 32.9 °F - 28.6 °F 84% 30.10 in 10.0 mi Calm Calm - N/A   Overcast
7:15 AM 33.1 °F 30.0 °F 28.6 °F 84% 30.11 in 10.0 mi SSE 3.5 mph - N/A   Overcast
7:35 AM 33.3 °F 28.9 °F 29.1 °F 85% 30.11 in 10.0 mi South 4.6 mph - N/A   Overcast
7:55 AM 33.8 °F 29.6 °F 28.9 °F 82% 30.12 in 10.0 mi South 4.6 mph - N/A   Overcast
8:15 AM 33.8 °F 28.6 °F 28.9 °F 82% 30.12 in 10.0 mi South 5.8 mph - N/A   Overcast
8:35 AM 34.2 °F 30.0 °F 28.9 °F 81% 30.12 in 10.0 mi South 4.6 mph - N/A   Overcast
8:55 AM 34.3 °F 30.2 °F 29.1 °F 81% 30.12 in 10.0 mi South 4.6 mph - N/A   Overcast
9:15 AM 34.7 °F 28.8 °F 29.3 °F 81% 30.11 in 10.0 mi South 6.9 mph - N/A   Overcast
9:35 AM 35.1 °F 29.3 °F 28.9 °F 78% 30.11 in 10.0 mi SSE 6.9 mph - N/A   Overcast
9:55 AM 35.6 °F 30.7 °F 29.1 °F 77% 30.11 in 10.0 mi SSE 5.8 mph - N/A   Overcast
10:15 AM 36.0 °F 30.3 °F 28.6 °F 75% 30.11 in 10.0 mi South 6.9 mph - N/A   Overcast
10:36 AM 36.7 °F 31.2 °F 28.8 °F 73% 30.11 in 10.0 mi South 6.9 mph - N/A   Overcast
10:55 AM 36.9 °F 30.7 °F 27.9 °F 70% 30.11 in 10.0 mi South 8.1 mph - N/A   Overcast
11:15 AM 37.6 °F 31.6 °F 28.6 °F 70% 30.11 in 10.0 mi South 8.1 mph - N/A   Overcast
11:36 AM 37.4 °F 30.8 °F 27.1 °F 66% 30.10 in 10.0 mi South 9.2 mph - N/A   Overcast
11:55 AM 37.4 °F 32.1 °F 27.0 °F 66% 30.10 in 10.0 mi South 6.9 mph - N/A   Overcast
12:15 PM 37.4 °F 31.4 °F 25.3 °F 62% 30.09 in 10.0 mi South 8.1 mph - N/A   Overcast
12:35 PM 37.4 °F 32.8 °F 25.5 °F 62% 30.08 in 10.0 mi South 5.8 mph - N/A   Overcast
12:55 PM 37.6 °F 33.1 °F 25.5 °F 62% 30.07 in 10.0 mi South 5.8 mph - N/A   Overcast
1:15 PM 37.6 °F 34.0 °F 24.8 °F 60% 30.06 in 10.0 mi South 4.6 mph - N/A   Overcast
1:35 PM 37.9 °F 32.7 °F 25.5 °F 61% 30.06 in 10.0 mi SSE 6.9 mph - N/A   Overcast
1:55 PM 38.1 °F 32.9 °F 25.5 °F 61% 30.05 in 10.0 mi South 6.9 mph - N/A   Overcast
2:15 PM 38.3 °F 32.5 °F 24.1 °F 57% 30.04 in 10.0 mi SSE 8.1 mph - N/A   Overcast
2:35 PM 39.0 °F 35.7 °F 25.2 °F 58% 30.04 in 10.0 mi South 4.6 mph - N/A   Overcast
2:55 PM 38.8 °F 33.8 °F 25.2 °F 58% 30.04 in 10.0 mi South 6.9 mph - N/A   Overcast
3:15 PM 38.5 °F 34.1 °F 25.2 °F 59% 30.04 in 10.0 mi SSE 5.8 mph - N/A   Overcast
3:35 PM 39.2 °F 35.9 °F 25.3 °F 58% 30.04 in 10.0 mi South 4.6 mph - N/A   Overcast
3:55 PM 39.2 °F 35.0 °F 26.1 °F 59% 30.03 in 10.0 mi SSE 5.8 mph - N/A   Overcast
4:15 PM 38.8 °F 33.8 °F 25.9 °F 60% 30.03 in 10.0 mi SE 6.9 mph - N/A   Overcast
4:35 PM 38.3 °F 33.2 °F 27.1 °F 64% 30.03 in 10.0 mi SE 6.9 mph - N/A   Overcast
5:15 PM 37.4 °F 32.8 °F 28.0 °F 69% 30.03 in 10.0 mi SSE 5.8 mph - N/A   Overcast
5:35 PM 37.0 °F 33.3 °F 28.2 °F 70% 30.03 in 10.0 mi SE 4.6 mph - N/A   Overcast
5:55 PM 36.9 °F 32.2 °F 27.9 °F 70% 30.03 in 10.0 mi ESE 5.8 mph - N/A   Overcast
6:16 PM 36.7 °F 34.1 °F 28.2 °F 71% 30.04 in 10.0 mi ESE 3.5 mph - N/A   Overcast
6:35 PM 36.7 °F 34.1 °F 28.2 °F 71% 30.04 in 10.0 mi ESE 3.5 mph - N/A   Overcast
6:55 PM 36.7 °F - 28.4 °F 72% 30.04 in 10.0 mi Calm Calm - N/A   Overcast
7:16 PM 36.9 °F - 28.0 °F 70% 30.04 in 10.0 mi Calm Calm - N/A   Overcast
7:35 PM 36.5 °F - 28.6 °F 73% 30.04 in 10.0 mi Calm Calm - N/A   Overcast
7:55 PM 36.1 °F - 29.1 °F 76% 30.04 in 10.0 mi Calm Calm - N/A   Overcast
8:15 PM 36.5 °F 33.9 °F 29.3 °F 75% 30.04 in 10.0 mi SE 3.5 mph - N/A   Overcast
8:35 PM 36.5 °F 33.9 °F 29.3 °F 75% 30.04 in 10.0 mi SSE 3.5 mph - N/A   Overcast
8:56 PM 36.7 °F 32.9 °F 29.8 °F 76% 30.04 in 10.0 mi SSE 4.6 mph - N/A   Overcast
9:15 PM 36.7 °F - 30.0 °F 77% 30.04 in 10.0 mi Calm Calm - N/A   Overcast
9:35 PM 36.9 °F 34.3 °F 29.7 °F 75% 30.04 in 10.0 mi SE 3.5 mph - N/A   Overcast
9:56 PM 37.0 °F 32.4 °F 29.3 °F 74% 30.04 in 10.0 mi SE 5.8 mph - N/A   Overcast
10:15 PM 37.0 °F 32.4 °F 29.5 °F 74% 30.04 in 10.0 mi SE 5.8 mph - N/A   Overcast
10:35 PM 37.0 °F 34.5 °F 29.7 °F 75% 30.04 in 10.0 mi SE 3.5 mph - N/A   Overcast
10:55 PM 36.7 °F 32.0 °F 29.3 °F 75% 30.04 in 10.0 mi SSE 5.8 mph - N/A   Overcast
11:14 PM 36.7 °F 32.9 °F 28.9 °F 74% 30.04 in 10.0 mi SE 4.6 mph - N/A   Overcast
11:35 PM 36.5 °F 32.7 °F 28.8 °F 74% 30.04 in 10.0 mi SE 4.6 mph - N/A   Overcast
11:55 PM 36.5 °F 33.9 °F 28.6 °F 73% 30.04 in 10.0 mi SE 3.5 mph - N/A   Overcast